DW9007 Weather Reports


Display with metric or nautical units.
time (UTC)temp
F
wind
direction
speed
MPH
gust
MPH
rain 1hr
in
rain 24hr
in
rain mn
in
humidity
%
barometer
mb
20260504044532 50 248 0.0 0.0 0.00 0.00 0.00 81 1017.4
20260504043009 51 248 0.0 0.0 0.00 0.00 0.00 80 1017.4
20260504041507 51 248 0.0 0.0 0.00 0.00 0.00 79 1017.6
20260504040047 51 248 0.0 0.0 0.00 0.00 0.00 78 1017.6
20260504034545 52 248 0.0 0.0 0.00 0.00 0.00 77 1017.8
20260504033028 52 248 0.0 0.0 0.00 0.00 0.00 77 1018.0
20260504031528 53 248 0.0 0.0 0.00 0.00 0.00 76 1018.0
20260504030116 53 248 0.0 0.0 0.00 0.00 0.00 75 1018.0
20260504024505 54 248 0.0 0.0 0.00 0.00 0.00 75 1017.8
20260504023043 54 248 0.0 0.0 0.00 0.00 0.00 74 1017.6
20260504021540 55 248 0.0 0.0 0.00 0.00 0.00 71 1017.5
20260504020020 56 248 0.0 0.0 0.00 0.00 0.00 70 1017.4
20260504014533 57 248 0.0 0.0 0.00 0.00 0.00 68 1017.3
20260504013114 58 248 0.0 0.0 0.00 0.00 0.00 67 1017.2
20260504011552 59 248 0.0 0.0 0.00 0.00 0.00 64 1017.1
20260504010110 60 248 0.0 0.0 0.00 0.00 0.00 61 1017.1
20260504004527 62 248 0.0 0.0 0.00 0.00 0.00 59 1016.8
20260504003023 64 248 0.0 0.0 0.00 0.00 0.00 56 1016.6
20260504001501 65 298 0.0 0.0 0.00 0.00 0.00 53 1016.7
20260504000100 66 298 0.0 0.0 0.00 0.00 0.00 49 1016.7
20260503234539 68 299 0.0 0.0 0.00 0.00 0.00 46 1016.7
20260503233042 68 299 0.0 0.0 0.00 0.00 0.00 41 1016.7
20260503231521 70 300 0.0 0.0 0.00 0.00 0.00 39 1016.6
20260503230020 70 304 0.0 1.0 0.00 0.00 0.00 39 1016.7
20260503224502 69 326 0.0 0.0 0.00 0.00 0.00 39 1016.8
20260503223100 70 335 0.0 3.0 0.00 0.00 0.00 38 1016.9
20260503221548 70 331 0.0 0.0 0.00 0.00 0.00 39 1017.0
20260503220039 70 279 0.0 0.0 0.00 0.00 0.00 41 1017.1
20260503214529 70 275 0.0 9.0 0.00 0.00 0.00 40 1017.2
20260503213018 70 261 0.0 3.0 0.00 0.00 0.00 40 1017.3
20260503211558 69 274 0.0 5.0 0.00 0.00 0.00 41 1017.5
20260503210059 69 304 0.0 7.0 0.00 0.00 0.00 42 1017.6
20260503204530 69 245 0.0 6.0 0.00 0.00 0.00 41 1017.8
20260503203030 69 346 1.0 5.0 0.00 0.00 0.00 42 1018.2
20260503201511 68 243 0.0 5.0 0.00 0.00 0.00 42 1018.4
20260503200004 68 259 2.0 9.0 0.00 0.00 0.00 43 1019.0
20260503194556 68 73 0.0 11.0 0.00 0.00 0.00 45 1019.0
20260503193042 67 225 1.0 14.0 0.00 0.00 0.00 44 1019.3
20260503191522 67 305 0.0 3.0 0.00 0.00 0.00 48 1019.6
20260503190019 67 348 0.0 5.0 0.00 0.00 0.00 48 1019.9
20260503184502 66 244 1.0 7.0 0.00 0.00 0.00 47 1020.2
20260503183004 66 68 1.0 7.0 0.00 0.00 0.00 49 1020.4
20260503181543 65 215 2.0 5.0 0.00 0.00 0.00 50 1020.6
20260503180051 65 88 1.0 8.0 0.00 0.00 0.00 51 1020.6
20260503174525 65 245 1.0 6.0 0.00 0.00 0.00 51 1020.9
20260503173027 64 313 1.0 5.0 0.00 0.00 0.00 52 1020.9
20260503171506 63 104 0.0 5.0 0.00 0.00 0.00 54 1021.2
20260503081507 46 44 0.0 0.0 0.00 0.00 0.00 82 1019.0
20260503071535 48 44 0.0 0.0 0.00 0.00 0.00 79 1018.6
20260503054533 52 67 0.0 2.0 0.00 0.00 0.00 72 1018.4
20260503053020 53 355 0.0 2.0 0.00 0.00 0.00 71 1018.3
20260503051500 53 35 1.0 5.0 0.00 0.00 0.00 70 1018.1
20260503050100 52 78 1.0 8.0 0.00 0.00 0.00 72 1017.8